Location: �terpigny
(49.8910°N, 2.9249°E)
Time: 02:45:54
(UTC+00:00)

SO-50 - Visible Passes

Search period start: 02 July 2022 00:00
Search period end: 12 July 2022 00:00
Orbit: 586 x 697 km, 64.6° (Epoch: 01 July)

Date Brightness Start Highest point End Pass type
(mag) Time Alt. Az. Time Alt. Az. Time Alt. Az.
02 Jul ? 00:45:26 21° SW 00:48:35 73° NW 00:53:28 10° NE visible
02 Jul ? 02:26:03 10° WNW 02:29:50 22° NNW 02:33:41 10° NNE visible
02 Jul ? 23:31:14 31° SSE 23:32:47 42° ESE 23:37:21 10° NE visible
03 Jul ? 01:08:47 10° WSW 01:13:15 41° NW 01:17:55 10° NNE visible
03 Jul ? 02:51:46 10° WNW 02:54:58 17° NNW 02:58:12 10° NNE visible
03 Jul ? 22:16:58 14° ESE 22:17:29 14° ESE 22:20:02 10° ENE visible
03 Jul ? 23:54:32 27° SW 23:57:08 84° SE 00:02:03 10° NE visible
04 Jul ? 01:34:05 10° W 01:38:09 26° NNW 01:42:18 10° NNE visible
04 Jul ? 22:40:10 25° SE 22:41:30 30° ESE 22:45:42 10° ENE visible
05 Jul ? 00:17:43 14° WSW 00:21:44 53° NW 00:26:32 10° NE visible
05 Jul ? 01:59:45 10° WNW 02:03:13 19° NNW 02:06:44 10° NNE visible
05 Jul ? 23:03:15 26° SSW 23:05:45 61° SE 23:10:35 10° NE visible
06 Jul ? 00:42:13 10° W 00:46:31 32° NW 00:50:56 10° NNE visible
06 Jul ? 02:25:29 10° NW 02:28:25 16° N 02:31:23 10° NNE visible
06 Jul ? 21:48:40 18° SE 21:50:17 21° ESE 21:53:53 10° ENE visible
06 Jul ? 23:26:11 14° SW 23:30:14 71° NW 23:35:08 10° NE visible
07 Jul ? 01:07:44 10° WNW 01:11:30 22° NNW 01:15:20 10° NNE visible
07 Jul ? 02:50:58 10° NW 02:53:41 15° N 02:56:26 10° NNE visible
07 Jul ? 22:11:24 19° S 22:14:25 43° ESE 22:19:02 10° NE visible
07 Jul ? 23:50:25 10° WSW 23:54:56 40° NW 23:59:34 10° NNE visible
08 Jul ? 01:33:28 10° NW 01:36:39 17° NNW 01:39:52 10° NNE visible
08 Jul ? 20:56:29 10° SE 20:59:06 15° ESE 21:01:47 10° ENE visible
08 Jul ? 22:34:03 10° SW 22:38:47 86° SE 22:43:42 10° NE visible
09 Jul ? 00:15:47 10° W 00:19:50 26° NNW 00:23:58 10° NNE visible
09 Jul ? 01:59:07 10° NW 02:01:54 15° N 02:04:41 10° NNE visible
09 Jul ? 21:19:02 10° S 21:23:09 31° ESE 21:27:23 10° ENE visible
09 Jul ? 22:58:44 10° WSW 23:03:23 52° NW 23:08:11 10° NE visible
10 Jul ? 00:41:26 10° WNW 00:44:54 19° NNW 00:48:24 10° NNE visible
10 Jul ? 02:24:22 10° NNW 02:27:10 15° N 02:29:59 10° NE visible
10 Jul ? 21:42:44 10° SSW 21:47:24 62° SE 21:52:14 10° NE visible
10 Jul ? 23:23:54 10° W 23:28:11 31° NNW 23:32:35 10° NNE visible
11 Jul ? 01:07:10 10° NW 01:10:06 16° N 01:13:03 10° NNE visible
11 Jul ? 02:49:10 10° NNW 02:52:25 17° NNE 02:55:39 10° NE visible
11 Jul ? 22:07:08 10° SW 22:11:53 69° NW 22:16:47 10° NE visible
11 Jul ? 23:49:26 10° WNW 23:53:10 22° NNW 23:56:59 10° NNE visible
